Theta_e
341 332 319 317 314 312 311 311 312 312 312 311 311 311 310 310 309 309 309 309 309 310 312 312 312 313 314 318 318 314 312 313 317 330 338 341 343 344 342 341 340 343 343
335 330 319 315 313 312 310 311 312 312 311 311 311 311 310 310 310 310 310 310 311 312 314 316 316 316 317 319 320 319 320 317 315 313 321 334 341 342 343 343 340 340 342
332 329 320 315 314 313 311 312 312 312 312 312 312 311 311 311 310 310 311 311 311 313 314 314 316 318 319 321 323 323 322 321 322 325 323 315 332 337 340 342 344 340 338
329 328 321 316 314 314 312 313 313 313 313 313 312 312 312 312 312 312 312 313 315 319 322 321 324 326 329 330 329 328 325 327 328 329 326 316 313 326 333 340 343 341 338
330 326 321 317 315 314 312 313 313 313 313 313 313 313 313 313 313 313 314 315 318 325 328 330 332 333 334 335 335 333 332 330 331 334 328 324 313 318 325 327 341 342 341
330 327 321 318 316 315 312 313 314 314 313 313 314 314 314 314 314 314 315 317 324 331 333 333 335 336 337 336 336 336 336 336 336 332 329 327 321 324 329 331 332 339 339
334 330 321 319 316 316 314 313 314 314 314 314 314 314 315 315 315 316 316 319 325 333 334 334 336 336 338 336 335 336 336 336 336 335 332 328 327 328 331 336 332 334 339
336 332 323 320 317 317 316 313 313 315 315 314 315 315 315 316 317 317 318 319 326 333 335 336 334 335 333 331 330 331 330 331 335 335 335 331 328 330 332 338 336 335 337
336 329 324 322 317 316 317 315 313 314 315 315 315 316 316 317 318 318 319 319 324 330 332 333 336 335 330 330 329 328 327 328 332 333 334 333 330 330 334 339 335 331 328
335 329 325 325 322 316 316 315 313 313 315 316 316 316 316 317 318 319 320 321 322 326 329 332 333 332 330 330 329 329 328 331 332 331 333 334 332 327 332 337 334 331 329
337 333 328 326 324 319 318 319 316 313 313 315 316 317 317 318 318 319 321 322 323 323 327 331 332 331 330 330 329 328 330 331 328 329 330 331 332 329 331 333 336 332 330
338 337 334 329 326 324 321 323 323 318 317 315 316 317 318 319 319 319 321 322 323 323 324 330 333 333 331 330 329 329 329 329 328 324 326 328 329 332 332 332 333 331 330
335 337 336 334 329 326 324 323 326 323 321 318 316 317 321 321 321 322 323 323 324 324 326 330 332 335 333 331 330 330 328 325 324 326 326 325 326 328 331 333 332 332 331
334 335 335 336 335 330 328 326 324 325 325 323 320 321 324 325 324 323 324 324 324 325 328 333 334 335 335 333 330 330 329 328 328 329 329 329 328 329 328 334 334 331 331
328 331 332 334 335 336 334 331 328 327 328 328 327 325 327 327 328 323 324 324 324 325 327 333 335 335 335 333 330 330 330 329 329 330 329 329 330 330 330 331 335 332 331
325 327 327 327 327 333 336 336 333 331 331 330 328 329 329 329 329 324 321 324 324 325 325 333 336 336 335 333 331 331 331 329 329 328 328 328 329 329 329 330 332 334 333
325 325 324 325 324 327 331 336 336 334 332 332 331 331 331 332 330 327 319 321 324 322 323 334 337 335 334 333 331 332 331 330 329 328 328 327 327 328 328 329 328 330 331
324 324 324 324 324 326 329 333 337 336 335 334 334 334 334 333 331 330 325 323 322 323 326 336 333 333 333 332 330 331 330 330 330 329 328 327 327 328 330 328 329 329 329
323 323 324 324 323 325 327 334 338 338 337 337 337 336 336 335 333 332 330 326 324 326 333 335 332 333 333 330 330 331 330 330 330 329 328 327 327 327 329 329 329 330 329
323 323 323 324 324 324 329 336 338 338 338 338 338 338 338 337 336 334 333 330 330 333 336 334 334 333 332 332 330 330 330 330 328 329 328 328 328 327 328 329 330 329 327
323 323 323 323 324 325 334 338 339 339 339 339 339 339 339 339 336 334 334 333 333 337 334 333 334 333 331 330 327 328 328 328 328 328 327 327 328 327 328 328 329 329 329
321 321 323 323 323 326 332 338 339 339 338 340 340 340 341 339 337 338 337 336 338 335 333 334 333 330 328 329 326 323 327 325 326 326 327 327 327 328 328 328 329 328 328
319 321 322 326 325 329 333 337 339 339 339 340 340 341 340 340 340 339 339 339 336 333 334 333 331 332 326 327 326 324 325 327 324 324 326 327 327 328 328 328 328 328 328
319 320 323 330 330 333 337 338 338 339 336 339 341 341 341 341 340 340 338 333 332 333 334 332 331 330 328 326 326 324 323 322 326 326 324 325 326 328 328 328 328 328 327
317 321 329 336 337 339 340 340 340 339 338 339 340 340 339 339 340 335 331 332 334 334 332 331 330 329 328 326 325 325 324 323 323 324 325 326 326 327 327 328 328 327 328
322 330 337 340 341 341 341 340 339 337 334 334 335 334 333 332 333 334 333 334 333 331 330 329 328 328 328 327 326 325 325 324 323 323 323 323 325 325 328 328 329 329 329
Wind_Speed
26 26 30 28 26 24 23 24 24 22 20 19 19 18 17 16 15 15 14 12 10 7 5 4 3 2 2 2 2 1 0 2 2 2 0 2 1 4 6 3 6 7 10
31 30 32 30 28 25 24 24 24 24 23 21 20 18 17 16 15 14 13 11 9 8 6 4 3 3 2 1 1 2 3 3 3 3 2 2 1 4 6 7 5 7 9
31 32 34 32 30 27 26 25 25 25 23 22 21 20 19 18 17 16 14 13 12 10 8 5 3 2 1 1 2 2 2 3 3 4 4 4 3 3 5 5 8 8 10
31 34 36 34 31 28 28 27 26 25 23 21 19 18 17 17 16 15 14 12 11 10 9 7 5 3 1 2 3 3 3 3 3 4 6 5 5 5 5 6 6 9 12
31 33 37 36 32 30 30 28 27 25 23 22 20 18 17 15 14 13 12 11 10 10 9 7 5 3 2 2 3 4 5 5 4 4 5 5 5 5 4 6 10 11 13
30 34 36 37 34 32 30 29 28 26 24 22 21 19 17 15 14 12 10 9 10 9 9 7 5 4 3 3 5 6 7 8 7 7 7 6 5 4 5 7 11 13 12
31 35 36 36 35 34 31 31 31 29 26 25 21 20 19 17 15 14 12 10 10 10 9 8 6 5 7 7 8 10 10 9 9 10 9 7 5 5 6 5 6 12 11
30 35 37 36 36 34 35 34 33 32 29 27 24 22 21 20 17 15 13 12 12 11 10 8 6 5 8 8 7 9 10 11 10 12 11 9 6 5 4 7 7 7 9
26 33 35 37 39 36 35 36 36 34 32 29 28 26 24 22 20 17 15 13 13 12 10 8 7 7 7 8 9 10 9 9 10 12 13 12 9 7 4 5 8 8 6
25 30 33 36 39 38 38 38 37 35 34 33 31 30 27 25 23 20 17 15 13 12 11 9 8 8 6 8 9 10 11 10 11 13 14 14 11 9 7 7 10 11 9
24 28 32 36 37 40 40 39 39 37 37 35 34 32 30 30 27 24 21 18 16 13 12 11 10 8 7 7 8 9 10 12 12 13 14 14 13 11 10 9 10 13 11
24 30 33 36 40 40 41 40 39 39 39 39 38 37 36 34 30 27 24 21 18 16 14 13 11 10 9 8 9 10 11 13 12 12 13 13 14 13 12 12 10 14 13
37 34 37 38 38 41 43 43 41 41 43 42 42 41 39 36 32 30 27 24 21 18 17 16 15 14 12 11 10 11 10 9 8 8 9 10 11 13 13 12 12 14 16
34 36 38 39 41 42 43 45 45 45 47 47 46 44 42 39 36 34 30 27 24 21 19 17 16 16 16 14 12 12 12 12 10 10 11 11 11 11 13 12 13 15 15
30 38 37 37 42 45 45 45 46 48 47 45 45 46 43 41 39 36 31 29 25 23 20 19 18 17 17 16 14 15 15 14 13 12 10 10 9 8 8 13 13 14 15
24 26 30 35 39 42 46 47 51 45 42 42 44 45 43 41 38 36 33 31 28 24 22 22 19 19 19 18 16 17 17 16 15 15 12 12 11 11 13 12 14 17 16
24 28 29 29 32 39 42 45 45 46 45 44 44 43 39 39 38 33 35 34 30 26 26 22 19 20 19 20 19 18 19 18 16 15 14 14 14 13 14 14 16 18 17
29 36 39 35 28 28 37 42 43 43 43 42 40 37 34 33 34 33 35 34 29 27 23 22 20 21 19 19 18 20 19 18 18 16 14 14 15 13 12 13 13 18 16
36 35 37 33 29 30 33 37 38 37 37 36 33 30 28 28 30 30 33 30 28 24 23 21 21 21 19 18 20 21 20 21 19 15 16 14 15 14 12 12 11 14 14
36 40 38 36 31 28 28 28 28 30 28 29 28 27 24 26 26 27 25 25 23 19 19 18 19 19 19 19 19 21 21 19 15 15 13 11 13 13 14 13 14 13 12
39 37 36 33 30 23 24 25 24 26 25 23 23 20 21 22 23 22 23 20 19 19 17 16 17 17 17 19 9 9 12 14 14 14 13 12 12 12 14 13 14 14 13
32 35 32 30 23 22 26 25 15 20 17 20 17 17 18 22 21 22 21 22 21 20 17 15 16 11 10 10 5 2 1 2 11 15 14 14 12 13 15 15 16 12 10
31 33 28 25 18 20 24 21 14 13 10 16 19 19 20 21 21 22 22 21 20 18 16 16 16 14 8 10 11 3 1 3 1 1 10 13 12 12 14 14 13 13 12
33 28 24 17 17 20 21 22 23 18 13 15 24 22 21 21 22 22 19 17 16 15 15 13 12 13 11 11 12 10 3 3 1 1 4 8 12 10 9 12 13 11 12
27 22 17 13 16 20 21 21 23 23 19 21 20 21 20 19 21 19 13 14 14 12 12 11 11 13 15 11 9 7 10 4 1 1 1 2 5 8 8 9 12 13 11
14 12 14 16 19 21 22 23 25 27 25 24 22 20 17 17 16 16 14 13 12 11 11 11 11 12 13 12 13 10 8 4 4 3 1 1 2 2 5 7 9 11 10
Wind_Direction
188 183 182 179 180 176 173 172 171 171 169 167 164 161 161 161 161 161 162 163 166 166 159 150 150 136 101 73 54 42 205 232 236 202 37 43 285 154 144 151 164 164 166
183 181 181 182 180 179 178 178 177 175 172 171 168 162 162 162 162 160 158 157 159 161 156 149 139 125 106 71 35 19 9 359 326 279 246 246 151 206 188 160 183 178 183
181 180 182 184 183 180 181 184 183 179 175 174 170 166 165 165 164 164 163 161 163 162 163 160 145 113 68 8 344 347 341 339 343 350 332 254 216 194 238 176 191 193 190
180 180 183 186 185 185 187 188 189 186 180 178 174 172 168 167 164 164 163 161 160 160 162 161 156 144 98 348 329 321 318 326 343 344 322 307 237 214 203 212 194 208 193
184 186 186 187 187 190 191 192 195 192 187 182 180 178 174 172 167 165 165 166 166 167 169 168 173 176 172 269 292 302 308 315 317 313 315 313 275 229 240 224 203 209 209
186 190 190 191 190 194 194 197 199 198 194 191 186 183 181 179 175 173 171 171 175 180 180 182 190 222 234 243 268 275 282 288 294 299 304 309 284 269 288 237 227 206 211
191 193 195 195 195 198 199 202 202 202 200 197 195 191 188 188 184 179 177 179 185 194 192 193 206 229 257 253 255 264 268 276 282 288 292 297 280 282 303 213 199 203 213
196 196 197 201 203 202 204 206 207 207 204 202 200 200 197 195 192 189 185 184 191 196 200 205 209 234 261 273 273 267 267 274 275 270 274 279 282 273 294 214 201 208 217
202 202 202 207 208 209 212 212 212 211 208 206 208 207 206 203 201 196 195 193 194 197 199 207 215 236 264 274 276 274 269 271 276 265 266 269 274 256 257 228 218 219 221
208 210 211 213 214 214 217 219 221 216 214 213 212 213 212 209 206 206 203 202 202 203 204 207 216 226 248 275 283 275 274 273 264 262 260 264 269 254 249 232 232 226 230
217 220 221 221 221 220 221 222 222 222 223 221 219 219 217 214 209 208 210 209 209 210 212 214 219 224 247 270 280 275 280 274 265 257 256 259 265 258 251 244 239 234 236
229 227 229 228 226 224 226 227 225 224 226 224 223 221 220 218 213 213 213 215 217 219 221 221 223 227 239 251 262 268 273 276 267 263 259 258 261 261 259 253 248 234 235
232 235 234 236 233 230 228 230 229 228 228 228 227 225 223 221 215 216 214 216 220 223 229 227 229 229 235 248 255 268 278 282 268 271 271 269 265 262 258 254 248 237 239
242 243 244 244 240 237 235 233 232 230 230 230 230 228 225 223 218 217 217 219 223 227 234 235 239 238 238 244 254 262 268 268 271 279 282 284 268 263 246 245 242 236 230
252 251 253 254 250 245 238 236 236 234 231 230 231 231 227 225 222 218 223 224 227 233 239 241 243 243 240 242 250 257 260 264 268 272 282 278 265 257 246 242 241 228 221
252 252 255 251 254 245 243 240 238 233 232 232 236 237 232 227 224 219 225 229 230 235 244 243 248 251 244 239 244 254 260 257 262 271 274 268 268 253 252 255 235 226 219
261 275 279 282 255 244 243 242 235 233 233 236 236 237 234 229 228 222 228 230 230 236 243 240 242 246 244 239 249 258 258 254 260 264 267 270 266 267 248 246 241 223 222
282 288 294 290 275 249 243 242 233 232 237 236 235 237 235 231 232 227 229 229 231 237 245 241 236 239 242 243 254 256 246 249 257 258 254 264 259 260 244 244 236 220 223
293 296 296 296 281 265 247 237 231 233 233 233 234 235 235 233 229 227 230 229 230 229 236 234 233 236 240 250 255 252 251 256 261 257 250 259 244 244 246 235 218 216 221
298 298 294 287 277 262 242 230 228 227 230 233 235 237 237 233 226 222 222 221 219 212 226 227 229 231 243 255 257 264 272 256 247 247 239 241 228 234 237 235 216 217 226
296 293 291 285 273 241 213 201 205 209 216 221 228 233 232 230 219 212 209 205 208 211 216 226 229 235 242 249 259 270 262 249 247 240 227 228 233 236 234 230 226 215 229
284 289 290 289 268 233 213 198 198 196 209 217 219 222 222 216 209 201 197 200 200 207 216 224 226 226 236 217 203 201 307 281 236 235 229 226 232 237 227 224 211 216 227
282 282 294 286 244 214 202 191 165 161 167 187 201 208 211 209 200 197 199 196 202 209 220 226 235 226 221 210 201 168 148 233 329 146 220 220 226 229 223 219 222 225 224
277 286 288 264 217 198 197 188 180 170 158 189 192 196 197 200 200 192 198 200 203 214 230 234 234 232 206 191 205 218 155 116 122 43 72 191 213 217 204 211 215 218 218
279 281 260 210 183 177 182 183 171 168 168 164 169 170 173 184 192 194 203 203 212 222 229 228 226 215 209 201 187 180 217 218 194 106 52 89 174 211 202 194 206 209 209
270 240 206 179 166 167 173 167 167 160 153 153 161 170 179 186 192 203 206 209 205 218 227 223 210 206 205 209 206 199 179 166 189 168 134 176 149 140 153 173 181 191 196